Location: El Recuerdo
(3.6589°N, 75.6172°W)
Time: 21:27:39
(UTC+00:00)

Meteor 1-5 Rocket - Pass Details

Date: 22 March 2026
Orbit: 787 x 914 km, 81.2° (Epoch: 11 April)

Event Time Altitude Azimuth Distance (km) Brightness Sun altitude
Rises 10:04:31 0° 2° (N) 3,265 7.3 -16.1°
Reaches altitude 10° 10:06:55 10° 6° (N) 2,337 6.6 -15.5°
Maximum altitude 10:12:04 58° 85° (E) 918 4.8 -14.3°
Drops below altitude 10° 10:17:17 10° 163° (SSE) 2,372 6.7 -12.9°
Sets 10:19:44 0° 167° (SSE) 3,317 7.4 -12.3°
